Location: Newark
(47.4417°N, 1.1394°W)
Time: 23:59:09
(UTC+00:00)

Envisat - Pass Details

Date: 20 November 2019
Orbit: 764 x 766 km, 98.1° (Epoch: 15 December)

Event Time Altitude Azimuth Distance (km) Brightness Sun altitude
Rises 05:22:33 0° 33° (NNE) 3,242 6.6 -18.9°
Reaches altitude 10° 05:26:50 10° 68° (ENE) 2,307 6.3 -18.2°
Maximum altitude 05:28:19 11° 85° (E) 2,222 6.5 -17.9°
Drops below altitude 10° 05:29:49 10° 103° (ESE) 2,302 6.8 -17.7°
Sets 05:34:02 0° 137° (SE) 3,220 7.1 -17.0°
